RH
69 80 92 86 87 94 91 89 75 60 62 68 70 69 66 67 67 65 68 72 67 63 58 55 51 49 52 53 52 57 64 62 59 59 60 74 88 89 93 94 92 98 96 91 92 91 92 94 93 90 85 80 78 83 86 85 82 81 83 84 84 87 88 83 82 88 89 90 90 89 94 95 92 93 93 91 92 90 91 88 82 88 97 95 90 89 89 85 84 86 88 93 92 89 83 82 83
68 81 93 91 91 90 86 81 69 60 61 68 69 66 64 64 64 61 65 68 62 57 53 51 49 53 54 49 50 54 65 71 67 65 73 84 86 88 92 92 93 96 97 93 92 93 92 92 90 88 85 81 80 80 80 80 78 81 88 89 88 90 90 87 84 87 89 88 87 88 92 95 97 95 92 91 92 93 93 88 84 85 85 89 91 90 90 83 80 84 90 93 90 88 83 81 83
72 82 92 92 88 85 83 73 65 66 65 67 66 64 66 63 61 61 63 64 61 54 51 51 49 54 53 50 54 55 64 73 71 67 76 83 80 87 89 89 94 93 95 93 91 93 90 86 87 88 82 79 79 78 78 77 75 80 88 91 90 91 92 89 88 92 91 87 86 87 89 90 93 95 92 91 91 90 87 83 84 84 79 82 87 91 93 88 84 86 90 92 90 89 85 84 84
73 79 88 88 81 82 81 69 65 67 66 69 65 63 70 68 66 66 66 64 59 52 50 51 51 53 51 55 58 57 66 72 72 70 73 78 79 87 89 89 94 92 93 91 89 93 90 86 91 91 83 79 80 82 80 77 77 78 82 87 88 89 92 92 92 95 90 85 86 86 87 88 87 91 92 90 91 88 86 82 81 82 80 86 90 90 92 93 93 90 90 93 93 93 90 89 86
79 81 87 85 78 81 79 70 68 67 66 68 63 64 71 70 69 67 64 61 54 51 50 49 53 55 52 58 59 57 67 70 73 74 72 79 87 90 90 92 93 94 94 91 88 92 93 93 97 97 93 89 85 84 79 76 77 80 83 84 88 89 91 95 95 93 89 86 86 84 85 86 82 85 87 88 94 91 88 87 81 80 81 88 90 87 89 92 96 94 92 90 92 95 93 91 85
81 84 89 86 81 80 73 68 70 73 73 70 65 66 69 67 68 65 60 57 52 49 48 49 51 53 57 61 60 59 65 66 69 76 76 82 91 90 89 91 93 94 94 90 87 90 92 93 99 97 93 87 81 80 78 76 76 81 88 88 90 91 91 94 95 91 88 85 84 83 83 86 80 81 81 82 95 93 90 90 85 84 82 83 84 85 88 92 94 93 91 86 88 91 91 90 83
78 85 88 84 82 76 68 69 72 74 75 75 70 67 67 67 67 60 57 55 51 49 46 48 47 50 62 62 61 65 67 67 67 77 83 86 91 90 90 89 91 94 92 90 87 89 90 90 94 92 87 82 78 79 77 77 78 78 87 96 94 92 93 92 92 91 87 85 85 81 85 88 78 80 81 77 94 98 94 91 85 86 86 86 87 87 87 88 89 88 89 88 89 88 87 89 83
77 84 84 79 76 73 71 73 74 73 74 75 72 70 71 72 68 57 56 56 52 51 47 48 47 54 66 61 63 71 74 74 74 84 89 89 91 90 90 89 89 90 92 91 87 89 89 89 90 89 89 83 79 80 78 79 81 79 81 94 97 93 94 92 91 92 91 90 88 84 90 91 73 78 84 76 89 97 91 86 84 90 91 88 88 90 87 80 81 83 86 90 91 89 90 90 85
76 83 85 78 69 71 77 76 75 76 76 73 71 74 76 76 71 59 56 58 54 50 50 50 47 56 66 65 68 71 77 82 82 89 91 89 91 90 90 89 89 89 92 92 89 90 89 88 88 88 90 84 80 81 85 83 81 80 79 87 98 98 92 92 92 93 96 92 85 84 91 91 70 73 86 80 80 83 84 83 83 84 83 84 84 89 90 83 83 86 87 90 91 93 94 90 85
77 87 85 75 67 71 76 74 73 74 74 71 72 74 76 78 70 59 55 59 56 51 55 53 49 56 64 69 70 69 77 85 85 88 90 89 90 90 89 86 86 89 91 92 90 89 87 88 87 90 91 84 80 82 88 89 86 83 80 83 91 97 95 93 93 94 97 91 83 81 89 93 74 68 83 86 79 76 78 83 83 78 77 83 85 88 90 88 87 88 89 90 89 90 90 87 84
80 88 83 72 69 73 73 73 74 71 72 71 70 74 78 77 65 58 59 60 59 55 54 52 54 59 64 72 73 76 82 84 83 85 88 89 90 90 90 84 81 87 91 92 91 86 85 87 87 92 95 86 79 79 86 91 90 87 81 80 83 92 97 95 95 94 95 94 88 82 87 97 87 76 82 86 80 73 67 71 80 80 79 81 84 89 91 89 88 88 86 82 81 83 84 83 81
77 83 80 76 76 77 74 74 75 71 70 69 66 72 80 74 61 57 61 61 60 56 51 52 55 54 64 73 73 79 80 80 83 84 87 87 90 91 90 85 80 82 86 90 90 87 88 88 88 91 96 94 83 77 85 91 87 85 83 81 85 91 93 95 97 93 90 92 91 90 91 94 96 92 89 87 81 70 58 59 70 74 77 79 82 84 84 84 84 83 78 75 75 78 79 79 78
72 78 79 82 82 78 76 75 79 74 64 67 68 72 79 69 59 58 60 62 60 56 51 50 51 53 65 71 71 75 73 79 83 84 88 86 89 89 86 84 81 80 81 89 90 90 95 95 92 91 96 100 93 81 81 88 84 82 83 81 84 88 90 93 97 92 90 90 87 92 94 91 94 95 92 93 92 83 68 57 57 69 78 76 73 71 68 72 76 75 71 70 71 73 74 74 74
68 80 81 81 81 78 79 75 77 71 59 67 73 75 75 68 65 61 59 60 60 58 52 48 49 56 67 72 72 70 71 81 83 85 89 88 90 88 87 88 87 85 80 86 89 92 98 97 92 91 95 98 99 91 80 82 84 84 83 81 82 85 87 89 92 91 92 91 89 94 95 91 91 91 86 87 94 96 89 72 62 72 77 69 64 62 60 61 65 66 63 63 64 65 68 68 67
70 82 84 75 75 79 79 74 71 65 58 67 76 77 72 71 69 59 56 58 60 56 50 49 48 50 59 69 69 65 71 81 83 87 89 90 92 90 91 91 91 88 77 79 89 95 95 92 91 90 94 96 98 98 88 81 83 87 84 81 82 85 84 82 85 88 91 90 93 97 91 89 90 90 87 83 90 97 96 90 82 76 72 69 67 65 64 61 58 57 53 54 56 59 62 63 64
70 75 84 79 75 78 75 73 71 61 58 67 76 77 69 69 69 61 59 56 57 53 49 50 46 46 52 59 61 63 73 81 84 87 88 90 92 92 92 90 91 89 82 83 93 96 89 88 90 90 94 97 97 99 96 87 80 81 85 84 83 85 84 81 80 83 87 86 93 95 83 84 88 92 95 89 90 94 91 89 84 75 71 72 71 69 68 65 61 59 56 53 52 53 55 58 60
69 69 82 80 74 73 70 70 67 59 60 69 75 74 65 65 68 65 61 55 54 54 53 52 48 48 50 55 61 67 76 82 85 85 85 88 88 90 91 88 87 89 90 90 95 95 87 87 89 89 92 94 97 98 98 95 81 76 86 89 85 85 84 82 80 80 87 88 92 91 79 79 83 91 98 92 88 87 84 80 75 70 69 70 69 69 67 63 62 61 59 54 50 48 48 52 55
68 73 77 73 71 69 68 67 64 60 59 66 74 74 64 62 66 60 57 57 54 54 56 54 53 55 54 61 68 71 78 81 83 81 80 83 83 84 86 85 82 85 90 90 95 97 89 89 92 90 91 91 95 98 98 98 86 80 88 90 86 84 81 83 82 80 87 89 88 85 80 78 79 87 90 86 85 80 77 75 71 67 64 64 63 63 60 59 58 57 56 53 52 50 48 54 57
67 75 70 63 68 68 70 70 69 69 63 68 77 76 65 63 65 57 58 61 53 53 58 57 59 62 61 67 71 72 77 78 79 77 76 78 78 78 80 82 80 82 88 90 94 99 95 96 97 93 90 90 93 97 100 98 85 82 87 88 88 84 81 84 81 78 83 85 83 81 80 79 79 85 84 80 82 81 76 71 66 61 58 58 57 57 56 55 55 54 55 54 55 54 53 57 60
64 67 62 59 64 66 75 75 76 78 71 73 75 73 68 67 68 59 58 59 53 52 55 57 62 66 66 67 68 70 73 75 77 76 75 77 77 76 77 78 79 80 85 89 92 96 99 100 99 95 89 90 93 94 99 98 88 87 89 90 89 82 81 84 80 77 80 82 81 80 81 80 80 85 82 77 77 77 73 66 60 57 55 55 54 54 53 52 53 52 53 54 55 55 57 60 61
62 63 62 66 66 65 77 78 78 78 71 74 72 69 67 67 68 61 56 57 55 51 47 50 58 65 66 66 66 68 70 72 74 75 75 76 76 76 77 77 77 80 85 89 92 93 97 100 100 97 92 93 94 93 97 99 96 96 93 90 87 81 82 84 78 78 81 83 83 85 85 81 79 80 77 71 69 66 64 60 56 55 52 51 50 50 51 53 56 58 60 61 60 61 62 63 63
61 70 72 74 69 66 79 79 79 77 70 72 70 66 66 66 66 60 54 53 51 47 44 45 53 61 63 65 67 67 67 68 70 73 75 75 76 76 77 79 79 82 87 88 91 92 94 99 99 97 96 95 93 92 95 99 98 97 92 88 88 86 86 84 80 82 85 85 85 87 86 81 78 79 74 66 62 57 55 54 52 51 49 48 51 54 59 61 63 64 63 62 62 63 62 61 60
55 71 77 77 73 74 81 81 81 75 67 69 69 69 68 65 65 62 55 51 47 43 43 46 53 59 62 65 67 67 67 67 68 71 74 74 76 76 76 79 79 82 86 87 90 92 92 96 98 97 95 93 91 91 93 97 96 92 91 91 91 90 88 89 89 85 82 83 83 83 83 82 81 80 72 59 55 52 51 51 49 49 49 53 59 63 65 65 64 62 60 58 57 59 59 57 55
54 69 79 78 79 83 80 79 80 73 72 75 74 72 66 62 64 64 57 50 46 42 43 49 56 61 63 65 64 65 66 68 69 70 74 74 76 78 77 78 79 82 86 87 90 92 92 94 96 96 94 91 91 91 92 95 94 92 93 94 92 90 92 95 92 82 79 81 79 74 76 81 81 78 68 55 50 49 49 49 48 50 55 61 64 65 65 64 62 58 56 55 52 53 54 53 51
57 70 81 81 82 84 77 76 79 76 78 78 74 71 66 66 67 65 58 49 45 44 48 53 58 62 63 64 63 64 67 69 70 70 73 75 77 80 80 80 80 82 84 86 88 90 93 93 93 96 95 93 93 92 91 94 93 91 91 91 88 87 90 91 86 80 79 81 75 68 70 79 79 73 63 52 50 50 51 51 53 57 62 64 64 66 66 62 59 56 55 53 49 48 49 49 48
66 74 79 80 83 83 77 78 81 79 79 77 72 68 66 74 72 61 57 53 47 46 52 55 59 63 63 62 63 64 66 68 70 69 71 74 77 78 80 81 83 84 83 83 85 88 93 92 93 97 96 96 97 93 92 92 91 89 89 88 86 85 86 84 82 83 82 81 75 64 64 70 75 72 60 52 54 55 56 57 59 62 63 63 65 67 64 60 58 55 53 50 47 46 46 46 45
72 76 76 79 81 81 79 80 81 78 78 78 74 67 67 77 71 54 54 56 49 48 55 57 58 61 62 61 62 64 64 67 70 68 68 72 74 75 76 80 82 84 84 84 85 88 92 91 92 97 97 99 98 94 95 93 89 90 88 86 87 85 84 82 83 84 82 78 69 62 65 67 71 71 61 57 60 60 60 61 61 62 65 66 66 66 62 59 57 53 52 50 47 47 45 43 43
70 71 74 80 79 79 80 80 80 78 75 77 79 72 65 70 68 59 59 56 49 52 58 58 57 59 61 61 62 65 65 67 71 69 68 70 72 73 74 77 79 80 83 85 87 88 90 90 92 94 95 98 97 95 98 95 91 91 87 86 86 80 79 82 84 83 77 71 65 67 71 70 69 68 63 62 63 62 62 62 62 63 66 67 65 64 61 58 55 52 51 50 49 47 44 42 41
67 67 71 79 77 79 85 82 81 78 74 77 79 70 62 64 68 65 61 58 56 56 58 58 57 59 60 61 62 64 65 67 70 69 69 70 73 75 75 79 80 79 82 84 88 88 88 90 92 93 93 95 97 94 95 95 95 93 89 89 83 75 78 82 82 77 71 68 69 71 71 69 68 66 64 64 63 62 61 61 65 67 65 65 64 61 60 57 53 52 50 50 49 45 43 42 40
66 68 69 72 69 75 85 83 80 78 78 79 74 68 66 66 69 66 59 61 63 59 59 58 56 58 59 60 60 61 63 64 65 65 68 71 74 76 76 81 82 81 82 85 88 87 87 90 91 93 93 94 95 93 93 94 92 91 92 90 78 73 78 78 77 74 71 71 71 70 69 68 67 65 65 64 62 61 61 62 66 66 63 63 62 60 58 56 52 50 49 49 48 44 41 42 43
68 70 63 63 63 71 82 82 79 79 79 78 72 68 70 66 66 68 60 58 60 58 60 57 55 57 56 58 58 57 60 60 62 63 66 70 73 76 76 81 84 83 84 85 87 87 88 90 91 92 93 93 94 92 92 92 92 91 88 83 74 71 74 76 77 76 74 73 70 67 67 66 65 65 66 64 61 60 63 66 66 64 62 62 61 59 57 54 52 51 50 48 48 46 41 40 43
66 61 54 61 66 73 84 83 78 79 79 76 71 67 68 63 62 70 62 55 58 58 59 55 54 55 53 55 55 53 55 57 60 61 63 68 71 75 77 80 83 83 85 86 88 88 87 89 91 91 92 94 92 92 93 92 90 84 76 72 70 68 71 76 78 78 77 76 72 67 64 64 65 66 65 63 61 60 64 67 66 62 61 63 62 59 57 54 53 53 51 48 46 45 42 41 40
60 57 54 64 67 67 78 82 77 79 80 76 71 72 72 63 62 74 67 56 57 57 57 55 52 52 51 51 51 52 54 56 59 59 61 66 70 74 77 80 81 82 85 86 87 87 84 86 89 89 91 93 91 92 93 90 81 71 67 70 69 66 72 78 77 78 79 77 71 64 62 64 65 65 64 63 61 61 64 67 67 63 61 64 62 61 60 56 54 54 52 49 45 42 42 43 41
49 56 56 66 70 64 69 79 80 80 82 78 78 84 81 65 64 76 70 58 57 55 54 53 49 49 49 48 49 51 53 55 57 58 60 65 70 74 76 80 81 82 85 86 87 87 83 85 87 88 91 92 92 93 90 84 74 66 66 70 67 65 72 78 78 78 78 76 69 58 60 65 65 65 63 62 61 62 63 64 66 63 62 64 61 62 64 60 56 53 52 51 46 43 43 43 41
34 41 45 54 64 66 65 72 79 80 80 78 79 86 79 64 66 76 71 60 55 53 52 50 47 47 48 48 47 49 51 53 54 57 59 63 69 73 76 80 82 82 85 85 88 88 86 86 88 90 92 90 92 91 85 78 72 68 69 71 70 68 72 75 76 77 76 76 69 57 57 63 65 65 63 61 61 61 63 64 64 63 65 66 63 65 68 65 58 53 54 53 48 45 42 40 39
33 38 44 48 53 61 66 70 76 75 74 74 72 74 69 61 66 74 72 63 54 51 52 51 48 45 47 47 46 48 50 49 52 57 59 62 68 71 75 80 82 83 85 87 88 87 85 87 89 91 92 91 91 89 82 79 77 75 75 76 74 73 74 73 73 75 74 75 70 59 58 62 66 67 64 62 61 62 64 65 64 62 66 68 65 68 69 65 58 53 53 51 52 52 46 42 39
37 40 48 54 52 56 68 76 78 71 66 70 70 68 67 62 64 69 73 67 57 53 52 52 50 47 47 46 45 48 49 50 54 58 59 62 67 71 75 79 81 84 86 87 87 85 83 85 89 91 90 86 87 87 82 81 81 80 80 78 74 74 74 72 73 74 73 74 70 63 62 65 69 71 68 64 61 62 64 64 63 62 67 68 65 66 65 63 58 54 53 52 55 57 53 50 43
29 28 34 46 51 58 74 80 78 73 64 66 72 69 65 61 60 65 72 71 60 53 51 49 50 49 48 47 46 47 49 52 55 56 59 62 65 70 74 77 80 82 86 85 84 84 82 82 86 89 84 78 78 79 77 77 77 77 78 75 72 71 71 71 72 72 72 74 72 68 68 70 73 74 72 66 62 63 64 64 63 61 65 67 65 64 63 62 58 55 56 55 55 57 58 55 46
22 27 28 33 49 64 77 82 79 73 64 65 72 68 59 57 61 64 67 69 64 57 54 51 50 51 50 49 49 50 50 53 54 52 57 60 63 69 72 76 77 79 82 82 82 83 82 82 84 84 78 73 72 69 68 70 69 69 72 72 70 69 70 70 68 68 69 75 77 73 72 74 76 77 75 71 67 65 63 64 65 64 65 67 67 67 66 65 61 59 60 58 56 56 57 58 51
17 26 25 28 52 58 61 79 82 73 69 70 72 67 59 60 64 67 66 68 72 71 67 62 57 53 50 47 48 51 52 54 54 51 52 57 62 67 70 74 76 76 78 78 79 81 81 80 76 74 73 70 67 62 63 67 65 66 69 68 67 69 70 68 66 66 67 74 81 79 76 74 75 80 79 76 74 68 62 64 66 66 66 67 69 69 68 69 66 64 64 63 60 55 54 59 60
13 21 20 26 55 63 64 79 80 75 75 72 70 61 56 60 62 63 67 72 76 76 73 69 64 61 56 49 48 51 51 53 54 50 52 58 61 64 69 72 74 75 75 74 75 76 77 77 71 67 70 69 65 63 63 66 68 69 69 70 71 72 73 71 70 70 70 74 79 80 79 74 73 80 80 79 80 74 66 67 68 70 70 68 70 72 72 71 68 67 65 65 66 61 57 59 62
11 18 19 23 51 72 79 82 74 70 70 72 73 57 45 53 59 60 67 74 74 72 74 68 64 68 66 56 51 51 52 53 53 50 54 60 61 62 68 72 71 72 72 71 71 71 73 76 72 67 68 69 68 68 66 67 70 69 71 75 76 75 76 75 71 69 69 72 75 78 80 76 73 79 80 78 81 79 73 72 72 73 75 72 71 73 73 71 69 70 67 67 71 67 63 62 60
11 22 28 32 52 70 80 78 64 58 63 74 75 58 46 46 53 66 74 76 74 72 73 69 65 69 68 59 52 51 52 52 52 51 53 57 59 61 66 69 68 68 70 71 70 69 72 74 71 67 67 67 67 68 68 68 70 70 71 74 73 72 72 69 62 61 65 69 73 77 79 77 73 77 81 76 75 79 78 76 74 74 76 75 74 75 74 72 72 72 68 68 72 68 68 69 62
13 33 42 46 57 66 72 67 55 60 70 74 70 61 55 46 51 75 83 76 74 72 70 70 70 68 65 62 56 51 51 50 51 52 52 54 57 60 63 65 66 65 67 71 69 69 73 71 66 66 67 65 66 66 67 68 69 69 70 71 71 68 68 67 60 57 60 62 67 74 79 81 75 75 80 75 70 75 78 79 76 73 74 74 75 78 77 75 75 74 67 65 68 67 71 74 68
35 50 52 52 57 61 61 53 53 65 64 60 68 66 54 44 48 69 79 73 68 68 66 67 70 68 66 66 60 52 51 50 49 49 51 53 56 59 60 63 64 63 65 70 69 69 73 69 63 65 67 65 65 66 66 68 68 67 67 68 68 63 64 68 66 62 59 57 64 71 73 79 80 76 78 75 69 70 74 77 76 73 75 77 78 79 79 77 76 73 69 69 71 71 71 74 75
51 54 51 53 54 52 50 45 49 58 48 47 67 69 51 36 38 56 69 68 60 57 57 59 64 67 67 67 62 56 52 52 50 48 49 52 55 57 59 62 63 63 65 68 68 69 71 71 66 64 66 66 66 66 66 66 66 65 64 64 64 61 60 63 65 66 63 61 68 72 69 74 81 80 79 74 67 66 68 71 76 78 79 82 82 82 81 79 75 74 73 71 70 72 73 74 78
48 46 47 49 49 44 44 45 46 50 48 48 61 70 59 36 31 47 58 58 56 51 51 54 58 63 64 64 63 58 54 54 52 49 49 52 55 56 58 61 62 63 65 67 68 68 69 72 69 65 66 66 66 66 65 64 64 63 62 62 62 59 58 61 65 68 67 66 70 75 74 75 78 80 81 77 70 71 69 68 77 83 81 82 83 83 82 79 77 77 76 72 68 70 73 76 78
41 42 41 42 48 48 46 48 47 47 47 50 61 72 64 40 33 42 47 51 55 54 54 54 55 58 60 62 62 59 55 54 54 52 50 51 54 57 58 59 62 64 65 66 67 67 68 71 71 68 67 67 66 65 64 63 62 61 61 61 61 58 58 62 65 67 68 68 73 76 74 74 76 77 80 80 76 76 74 71 78 82 80 81 82 81 79 77 78 78 77 76 73 70 71 75 78
37 39 35 37 48 51 48 49 50 46 45 52 65 72 62 44 37 38 40 46 51 56 58 57 56 57 57 59 60 60 57 53 53 54 52 51 53 55 57 59 62 65 66 65 65 65 68 70 71 69 67 67 66 63 62 62 60 60 59 59 60 59 59 61 62 65 67 69 73 75 72 72 75 75 78 80 77 76 76 75 76 77 77 78 78 76 72 72 77 80 79 78 75 74 73 74 76
34 32 27 30 38 40 44 52 49 41 45 57 68 68 52 39 41 43 42 46 51 57 60 61 63 63 60 57 55 57 59 54 52 53 53 52 53 54 56 59 63 64 64 64 64 65 68 70 71 70 66 65 64 61 59 60 60 59 57 57 58 59 61 62 62 65 68 66 67 71 72 73 74 73 76 77 73 72 76 76 75 75 75 75 75 73 70 68 70 77 81 78 76 76 75 75 76
29 23 18 22 26 24 27 38 36 34 48 64 67 58 42 35 44 50 47 49 53 58 63 66 67 68 67 63 57 56 59 57 53 52 52 53 53 54 55 58 62 63 62 62 63 66 68 70 71 69 66 63 62 61 59 59 60 59 57 56 57 59 61 63 63 64 65 64 65 67 67 67 69 70 71 71 68 68 72 73 71 72 72 72 75 75 75 72 67 71 79 78 77 77 77 78 78
22 17 14 16 18 20 27 33 34 37 44 54 58 49 39 39 44 49 49 51 56 59 62 65 64 67 70 68 64 59 58 59 57 53 53 53 54 55 55 57 60 61 62 62 63 67 69 70 71 68 65 63 61 60 59 59 60 59 58 58 58 58 60 62 63 62 63 63 64 64 63 62 63 65 65 65 65 66 69 69 70 72 70 68 71 72 75 77 71 72 80 80 78 78 79 81 79
19 15 14 19 20 24 34 38 39 41 35 39 52 46 39 40 39 45 50 50 55 58 57 62 66 67 68 68 67 65 62 62 60 57 55 54 55 55 54 57 59 61 63 63 64 67 68 70 71 69 68 66 63 61 60 62 62 61 60 59 60 59 59 62 64 63 64 63 60 60 62 63 62 62 63 64 64 64 66 67 69 71 69 66 69 71 73 74 71 74 79 80 79 80 81 82 81
17 16 18 25 24 24 32 35 39 40 31 34 45 43 41 41 38 47 56 51 52 55 55 60 65 64 63 65 69 71 68 65 64 61 58 56 55 55 58 63 65 64 64 64 65 68 69 69 69 69 70 69 66 64 64 65 65 65 65 62 61 61 61 64 65 65 65 63 60 60 62 64 64 63 63 63 63 62 63 64 66 68 67 67 69 72 73 72 71 74 76 76 77 79 81 83 83
17 19 22 24 25 27 32 34 34 34 34 37 41 42 45 41 37 46 54 52 50 54 57 57 58 61 63 62 66 72 71 68 67 64 61 58 55 58 66 68 65 65 65 64 64 66 68 69 69 69 68 67 66 65 67 68 66 68 68 65 63 62 63 64 63 63 64 64 65 66 66 66 65 63 61 59 61 64 65 66 67 70 71 71 71 71 71 70 70 73 75 76 77 75 76 83 85
20 20 22 24 29 33 34 33 29 27 37 41 37 38 37 34 37 42 48 53 53 54 59 60 59 62 64 63 66 73 76 74 71 67 63 59 57 62 70 68 64 63 65 64 63 62 63 65 68 70 68 67 66 65 67 67 66 68 68 66 64 61 60 62 61 62 65 67 68 69 70 69 66 64 61 58 60 65 70 71 72 74 76 76 76 73 71 68 68 71 73 76 80 76 76 83 86
22 20 23 27 32 34 33 38 37 30 36 42 39 35 28 29 44 47 46 53 56 57 61 63 64 63 65 69 70 74 78 77 75 72 67 63 62 65 70 71 68 65 65 65 63 61 59 61 67 69 68 68 66 65 67 67 66 67 67 65 65 63 61 63 65 67 69 71 71 70 70 70 68 63 60 61 64 65 70 74 76 77 76 76 75 71 70 69 67 68 68 71 74 73 74 83 86
21 19 22 25 30 31 28 38 48 42 38 40 41 35 25 32 53 56 51 53 56 62 64 62 65 68 71 76 76 78 81 79 77 75 71 69 69 69 72 73 70 68 67 66 63 61 60 62 65 66 66 67 65 64 68 67 65 64 64 63 66 66 65 66 69 71 72 71 72 72 69 69 69 65 62 65 69 70 72 74 76 77 75 74 72 70 70 70 69 69 71 74 76 74 74 79 82
Wind_Speed
8 7 6 3 3 3 1 1 0 1 0 4 2 1 2 1 1 1 4 4 3 5 3 6 11 6 2 1 4 4 4 1 1 2 2 4 8 13 9 12 15 15 16 17 16 14 13 12 11 11 10 9 9 9 9 8 8 9 9 10 11 12 12 12 12 11 11 11 12 13 14 14 15 16 16 16 15 15 14 13 13 14 14 15 16 15 13 12 12 14 14 13 13 13 14 15 15
8 6 4 3 2 2 0 1 0 2 2 5 2 2 2 1 0 2 5 3 2 4 5 9 10 4 3 4 6 5 5 5 4 2 4 8 13 11 9 13 14 15 15 16 16 15 14 13 12 12 11 9 8 8 8 8 8 8 9 11 10 11 12 13 12 11 10 11 12 13 13 13 14 16 15 15 15 15 14 12 13 14 14 15 16 16 15 13 12 13 14 13 13 14 14 15 15
8 6 4 3 1 1 0 1 0 2 4 5 3 3 2 1 2 3 3 1 3 6 8 10 7 4 3 6 3 2 4 3 3 5 6 11 11 9 12 13 13 14 14 15 16 16 15 15 13 12 12 10 8 7 8 9 8 8 9 10 10 11 12 13 12 10 10 11 13 12 12 12 13 15 15 14 15 16 14 12 12 14 15 15 16 15 16 15 13 12 13 12 12 13 14 14 14
7 5 4 3 1 0 1 0 1 1 4 4 3 3 3 2 3 3 2 2 5 7 10 10 6 3 1 4 2 2 4 3 3 4 7 9 8 12 15 13 13 14 14 15 16 16 15 14 13 12 12 10 9 7 7 8 8 9 10 10 10 11 12 12 13 11 11 12 13 12 12 11 13 14 14 14 15 16 14 12 11 13 15 15 14 14 15 15 14 13 13 12 12 12 13 13 12
6 4 4 3 1 0 1 1 1 1 4 2 3 3 3 3 3 5 5 4 4 6 10 8 4 3 3 5 2 1 3 3 4 3 6 8 9 14 15 13 14 13 14 15 15 16 15 14 14 13 13 12 11 9 8 7 8 9 9 10 10 10 12 12 12 13 12 12 13 12 11 11 12 13 12 13 15 17 15 13 12 11 13 14 13 13 14 14 14 14 13 13 12 11 11 11 11
5 3 3 2 0 0 1 2 3 3 3 0 2 3 2 3 4 6 6 4 4 6 8 6 5 6 5 5 4 4 2 2 5 5 6 9 12 15 14 14 13 13 14 14 14 14 15 14 13 13 13 12 11 10 8 7 7 9 8 9 10 10 11 11 12 12 12 11 12 13 11 10 11 13 12 12 15 16 16 14 13 12 12 12 12 13 14 13 13 14 13 13 12 11 10 10 10
3 1 1 1 1 1 1 4 4 4 2 1 1 3 3 3 3 6 6 5 6 6 5 5 7 7 5 3 4 6 3 2 6 7 8 11 14 14 14 13 13 13 13 13 13 13 14 12 12 12 12 11 10 10 8 7 7 8 7 7 9 9 10 11 12 12 13 11 11 12 12 10 9 12 13 12 14 15 16 14 13 13 13 13 11 12 12 12 12 13 13 12 11 11 10 9 10
2 1 0 1 1 1 2 5 3 2 2 1 0 2 2 2 1 4 4 3 4 5 6 7 5 4 5 2 3 6 5 5 8 10 11 13 15 13 13 12 13 13 12 13 12 12 12 11 11 11 11 10 10 10 8 7 7 7 7 7 7 8 9 11 11 11 12 11 11 12 12 11 9 11 13 11 12 14 16 15 14 13 13 14 13 12 11 11 11 12 12 11 10 10 9 9 9
1 1 1 1 1 3 3 3 3 2 1 1 1 1 1 1 1 1 4 4 4 6 7 4 2 2 6 6 6 5 6 8 12 13 12 14 14 13 12 12 13 12 11 11 11 11 11 11 11 11 11 9 9 10 9 7 7 7 7 6 6 7 8 10 11 11 11 11 11 11 12 11 9 10 12 11 10 13 15 15 14 13 14 15 14 14 12 11 10 9 10 9 8 9 8 8 8
1 0 0 0 2 4 4 3 3 2 1 1 1 1 1 0 1 2 5 5 4 6 5 2 3 6 8 8 6 5 6 10 14 13 12 13 13 12 11 11 12 12 11 10 10 10 10 10 10 10 11 8 8 10 10 8 7 7 7 7 6 6 7 9 10 11 10 10 11 11 12 12 11 10 12 10 9 10 12 15 15 14 15 15 14 13 12 11 10 8 8 8 8 8 8 8 7
1 0 1 1 3 4 4 3 3 2 2 1 1 0 2 1 3 4 5 6 3 4 5 2 7 11 9 7 4 6 9 11 14 14 13 12 11 11 11 11 11 11 11 10 10 10 9 10 10 11 11 8 6 8 10 9 6 7 8 7 7 6 8 8 9 10 10 10 11 10 11 13 13 13 12 10 10 9 10 14 15 14 14 13 13 12 10 9 9 8 7 7 7 7 7 6 5
1 1 0 1 2 2 3 4 4 4 3 2 3 1 2 1 5 6 6 6 3 4 3 1 6 8 7 7 4 8 10 11 13 14 13 12 10 10 10 10 10 10 10 10 9 9 9 10 10 10 11 10 6 5 9 9 7 6 8 8 8 6 7 9 8 9 10 10 10 10 9 12 13 14 13 12 12 12 9 9 12 14 13 12 11 9 8 8 7 6 6 6 6 5 5 4 4
1 1 0 2 2 2 3 4 3 3 4 2 2 2 2 2 5 7 7 7 3 2 3 3 7 5 6 7 6 8 10 11 13 14 13 12 10 10 10 10 9 9 9 9 8 8 8 9 9 9 11 11 9 6 6 8 7 7 8 9 9 7 7 9 8 9 11 9 9 9 9 11 12 12 12 14 16 16 11 7 10 12 11 10 9 8 7 7 6 5 5 5 4 4 4 3 3
1 0 1 2 2 2 2 3 3 4 4 2 1 2 2 1 3 6 7 7 3 2 4 5 6 5 7 7 6 7 9 13 14 14 13 11 11 10 10 9 9 9 9 9 8 8 7 8 8 10 11 12 12 9 7 7 8 7 7 8 8 7 7 8 8 9 11 9 8 8 9 10 11 11 10 12 16 17 14 10 9 9 8 8 7 7 7 6 6 5 4 4 4 3 3 3 3
0 0 1 2 3 2 1 2 3 3 3 3 2 1 2 3 2 5 5 5 4 2 5 5 2 2 6 6 6 9 12 15 14 14 13 12 12 11 10 10 9 9 9 9 8 7 7 8 8 9 10 10 12 12 9 7 9 9 8 7 7 6 7 8 9 9 11 10 8 7 9 9 10 11 9 10 13 14 14 13 11 9 8 7 6 6 6 6 6 5 4 3 3 3 3 3 4
1 0 1 2 2 2 2 2 2 3 3 3 2 0 5 4 0 4 2 2 6 4 3 3 1 2 5 5 8 14 16 17 15 14 14 13 12 11 10 9 8 7 7 7 7 7 8 7 7 8 8 9 10 13 12 8 8 10 9 8 6 6 6 7 8 8 10 11 9 7 8 8 9 11 10 10 10 11 12 12 12 10 9 7 6 5 5 6 6 5 4 3 2 2 4 4 5
1 0 1 1 2 2 3 4 3 3 4 4 2 2 5 6 1 3 2 4 9 5 3 4 3 2 5 8 14 20 18 17 16 15 14 12 12 11 10 9 8 7 7 6 6 7 8 6 6 7 7 8 9 12 13 11 9 9 9 9 8 6 7 7 7 7 8 9 9 7 7 7 8 10 9 9 9 9 10 10 10 10 8 7 7 6 6 6 6 5 4 3 2 2 3 4 5
0 0 1 1 2 1 1 3 1 1 5 6 4 2 6 8 4 4 4 6 8 5 5 7 8 7 8 14 20 21 18 18 16 15 14 12 11 10 10 9 9 8 7 6 5 5 6 5 4 5 8 9 9 10 13 12 11 10 10 10 9 7 7 8 7 8 8 8 8 6 7 6 7 8 7 8 9 9 9 9 9 8 8 8 7 7 7 7 6 5 4 3 2 0 1 3 4
0 1 1 1 0 2 3 1 1 2 3 7 5 1 4 6 4 4 4 6 7 5 5 7 9 10 12 17 20 19 18 17 15 14 13 12 11 10 10 10 9 9 8 7 6 4 4 4 4 5 8 9 8 9 12 11 11 12 11 10 10 9 8 8 8 8 8 7 7 5 5 5 7 7 7 8 8 9 9 9 9 8 8 8 8 7 7 6 5 5 3 3 2 2 2 3 4
0 1 1 3 2 3 5 3 3 4 1 6 6 2 3 3 2 3 5 8 7 5 6 6 9 10 13 16 18 18 17 15 14 13 12 11 10 9 10 11 10 10 9 7 6 4 3 3 4 5 7 8 7 8 10 11 11 12 12 11 10 10 9 8 7 7 6 5 5 4 4 5 6 6 6 8 8 8 8 8 8 8 8 8 8 7 6 5 4 3 3 3 3 4 4 4 4
0 0 1 3 2 1 5 4 5 4 3 5 5 5 4 3 0 3 7 8 4 6 7 6 10 14 14 15 16 17 16 15 14 12 12 11 9 8 8 9 9 9 8 8 7 5 4 4 4 4 5 6 6 8 9 10 11 12 12 11 10 10 9 9 8 7 5 4 4 4 5 5 6 5 6 7 8 8 8 8 8 8 8 8 7 6 6 5 4 4 4 3 3 4 4 5 5
2 1 2 3 2 1 4 5 5 4 5 5 5 6 5 3 1 5 10 7 1 4 6 6 11 15 15 15 16 15 15 14 14 13 12 11 9 8 8 8 8 8 8 8 7 6 5 4 4 4 4 5 6 8 9 10 11 12 12 12 11 10 9 8 8 7 6 4 4 4 5 6 6 5 5 7 8 8 8 8 8 8 8 8 7 6 6 5 5 4 4 2 2 3 3 4 5
1 2 3 4 3 3 3 4 4 3 4 5 3 2 2 4 3 4 9 5 3 3 6 8 11 15 16 16 15 14 14 13 13 13 12 11 10 9 8 8 8 9 8 8 7 6 6 5 5 4 4 5 6 8 10 10 11 12 12 11 11 10 9 8 8 8 6 5 5 5 5 5 5 4 5 7 7 8 8 8 8 8 8 7 7 6 6 6 6 5 4 4 3 3 3 3 4
1 3 3 5 5 5 4 4 5 4 3 3 2 1 2 4 3 3 8 4 4 5 9 10 12 15 15 14 13 13 13 12 12 12 11 10 10 9 9 8 8 9 8 8 7 7 7 6 5 4 4 6 7 8 9 10 11 11 11 10 9 9 9 8 8 7 7 6 6 6 6 5 4 4 5 7 8 8 8 8 8 8 7 7 7 7 7 7 7 6 5 6 6 5 3 2 3
1 3 3 4 5 5 5 5 6 5 4 4 3 1 2 1 1 3 5 4 5 8 11 12 13 14 13 13 12 12 11 11 11 11 11 9 9 9 9 8 8 8 8 8 7 7 8 7 6 5 5 6 7 8 9 9 10 11 11 10 9 9 9 8 8 8 7 7 6 7 6 5 4 4 6 8 8 8 8 8 8 7 7 6 7 7 8 9 9 8 7 8 8 7 5 2 1
2 4 4 4 6 4 4 5 6 4 3 4 3 1 2 2 2 3 1 2 8 10 12 13 13 13 12 11 11 11 10 11 11 11 10 9 9 9 9 9 9 9 9 8 7 7 7 7 7 6 6 6 7 9 9 9 10 11 10 10 9 8 8 9 8 8 7 7 7 7 7 6 5 6 7 8 8 8 8 7 7 7 6 6 7 7 8 9 9 9 9 10 9 8 6 3 2
6 8 7 6 6 5 4 5 6 4 3 5 3 1 1 1 3 1 2 4 11 12 12 13 13 12 12 10 9 9 9 10 10 10 11 10 10 10 10 10 10 10 10 9 8 6 7 8 7 7 7 6 7 9 9 10 10 10 10 9 8 9 9 9 8 8 7 7 7 8 8 8 7 7 8 8 7 7 7 7 6 6 6 6 7 8 9 9 10 9 10 10 9 9 6 3 4
8 7 7 7 6 5 5 4 5 3 2 5 4 0 0 2 2 2 3 7 12 13 13 13 12 11 10 10 8 7 8 9 9 10 11 12 11 11 11 11 10 10 10 10 9 7 8 8 7 7 7 7 8 8 8 10 10 8 8 8 8 10 10 9 8 7 7 8 8 8 7 8 8 7 8 7 6 6 6 6 6 6 6 7 8 9 9 9 9 9 9 10 9 10 7 3 4
5 2 2 4 3 3 4 3 4 2 1 5 3 2 2 2 2 4 3 8 10 11 12 12 11 9 9 9 7 6 7 8 9 10 11 11 10 10 11 11 11 10 10 10 10 9 9 8 8 8 8 7 8 8 8 9 9 8 8 7 9 11 10 9 8 8 9 9 8 7 6 7 7 7 7 6 6 6 5 6 5 5 6 7 9 9 9 8 9 8 9 9 10 11 8 4 4
3 1 1 2 1 0 3 2 2 2 2 5 3 3 2 2 4 3 5 9 10 10 10 10 9 8 7 7 7 6 8 9 10 10 10 10 9 10 10 10 11 10 10 10 11 11 10 9 9 9 9 9 8 9 9 9 9 9 8 8 10 11 10 9 9 9 9 7 6 5 5 6 6 6 6 6 6 5 5 5 4 5 6 8 9 8 9 8 8 8 8 10 10 12 9 4 4
1 0 0 1 1 2 2 1 1 0 1 4 3 2 1 1 3 4 5 9 11 10 10 10 8 7 7 7 7 7 7 9 9 10 9 9 9 9 10 10 10 10 10 11 12 12 11 10 10 10 10 10 10 10 10 10 10 10 10 11 12 12 11 10 8 7 6 5 4 4 5 5 6 6 6 6 5 5 4 4 3 4 6 8 8 8 8 8 8 8 8 9 10 10 9 4 3
1 1 1 1 1 2 3 0 2 2 1 3 2 2 0 1 3 4 4 8 9 9 9 9 9 8 8 7 7 6 6 7 8 8 8 9 9 9 10 11 11 10 10 11 12 12 11 11 11 10 11 11 11 11 11 10 11 12 13 13 13 13 12 10 7 6 4 3 3 4 5 6 7 6 6 6 5 5 4 2 3 4 6 7 7 7 7 7 7 8 7 8 9 9 8 3 1
1 1 2 2 1 1 3 2 2 1 1 2 2 0 1 1 3 3 4 8 8 7 9 9 9 9 8 7 7 6 6 6 7 8 8 9 9 9 11 11 11 11 11 11 12 12 12 12 11 11 11 12 11 12 11 11 13 15 14 13 13 13 11 8 6 5 3 3 4 5 7 7 7 7 6 5 5 4 3 2 2 3 5 6 6 6 6 6 6 6 6 7 8 8 7 3 0
1 0 1 1 1 1 2 3 3 2 1 1 2 1 2 3 3 2 4 8 8 7 9 10 9 8 8 7 7 7 6 7 7 9 10 10 10 10 11 11 12 11 11 11 12 12 12 12 11 11 11 12 11 11 11 13 15 15 14 13 13 13 10 7 5 4 3 3 5 7 8 8 7 6 5 5 4 3 2 2 1 2 3 4 5 5 6 6 5 5 5 6 7 7 6 4 2
2 1 1 0 0 1 2 3 5 4 1 2 2 1 4 5 2 1 3 7 9 8 8 9 9 9 8 7 7 8 8 8 8 9 11 10 11 11 11 11 12 11 11 11 12 12 12 11 11 11 11 12 11 11 12 14 15 15 14 12 12 12 9 7 6 4 4 3 5 7 8 7 6 5 5 4 4 3 2 1 1 2 3 3 4 4 5 5 5 5 5 5 6 7 6 5 3
4 2 1 1 1 1 3 3 5 6 3 3 4 2 4 5 2 2 3 6 10 9 7 7 8 8 8 8 8 8 9 9 8 9 11 11 11 11 11 11 11 11 12 12 12 12 12 12 11 11 12 12 12 12 13 14 14 13 12 11 11 11 9 8 6 5 5 4 5 7 7 6 5 4 4 3 3 3 2 1 1 1 3 3 3 4 5 6 5 5 5 5 5 5 5 5 4
2 1 0 0 1 0 2 3 5 7 4 3 4 3 4 5 3 3 2 4 9 9 9 8 8 8 8 10 10 10 10 7 7 9 11 11 11 11 11 11 12 12 12 13 13 13 13 12 11 11 12 14 14 13 14 14 13 12 11 10 10 9 10 8 6 6 5 5 6 7 7 5 4 3 3 3 3 3 2 2 2 1 3 3 3 4 6 6 6 6 5 5 5 5 5 6 5
1 1 1 2 2 1 2 1 4 6 4 3 3 5 7 6 5 3 1 4 8 10 11 11 10 10 9 10 11 10 8 5 6 9 11 11 11 12 12 12 13 14 14 15 15 14 13 12 11 12 13 16 16 15 15 15 14 13 10 10 9 8 9 8 6 5 5 6 7 7 6 5 5 4 4 3 3 3 3 2 2 1 1 2 3 4 5 5 6 7 6 5 5 5 6 7 6
1 1 2 2 2 3 3 2 4 5 4 2 2 6 8 7 5 4 4 4 5 7 9 9 9 10 9 10 10 9 8 7 8 9 11 13 13 13 12 12 14 14 14 15 15 14 14 14 13 13 15 17 17 17 16 15 15 14 11 10 10 7 7 8 6 6 6 7 7 7 7 6 6 6 5 4 4 4 4 3 2 1 1 1 2 4 5 5 5 6 7 6 5 4 4 6 7
3 3 3 2 3 4 1 2 4 3 0 1 1 4 6 5 4 5 5 4 3 3 5 6 7 9 10 10 9 9 10 9 9 10 11 12 14 14 13 13 14 14 14 15 15 16 15 16 16 16 16 17 18 18 17 15 15 14 12 11 11 8 7 8 8 7 7 7 7 8 7 7 7 7 6 5 5 5 5 4 3 2 2 1 2 3 4 5 5 5 6 7 6 4 3 5 7
4 6 7 3 5 4 1 5 7 3 1 1 0 3 4 4 5 5 3 2 4 3 4 6 7 6 6 8 8 9 10 10 10 11 10 11 13 15 14 14 15 15 15 16 17 17 16 17 19 19 18 18 19 18 17 16 14 13 12 11 10 8 7 7 7 7 8 8 8 8 8 8 8 8 8 7 5 5 5 5 4 3 2 3 2 3 4 4 4 5 5 6 6 6 5 4 4
3 6 8 5 7 7 7 10 8 3 3 0 2 3 1 1 4 4 2 2 6 5 5 8 8 6 5 7 9 9 10 9 10 11 12 14 15 15 15 15 15 16 16 17 17 18 17 18 20 20 20 19 19 18 18 17 15 14 14 11 9 7 6 6 7 8 8 9 8 8 8 8 8 9 9 8 6 5 5 5 5 4 3 4 4 4 4 4 4 3 4 4 4 5 6 4 4
2 1 4 5 9 10 11 11 5 1 1 2 1 3 1 1 1 0 1 3 6 5 7 9 8 7 7 8 9 9 10 10 9 11 13 15 16 16 16 17 17 17 17 17 17 17 17 19 21 22 21 20 20 19 19 18 16 16 15 12 10 8 7 9 11 10 10 10 9 8 8 8 9 9 9 9 8 7 6 5 5 5 4 5 5 5 4 4 3 3 3 3 3 4 5 4 4
1 4 1 8 11 11 12 9 3 2 2 3 1 1 3 2 2 1 2 3 6 8 9 10 8 9 9 9 10 10 11 11 11 11 12 14 16 17 18 18 19 17 16 17 17 18 19 21 23 23 22 22 21 21 20 19 18 18 16 13 11 11 10 10 12 12 12 12 11 9 8 8 9 9 9 9 10 9 8 7 6 6 5 5 5 4 4 3 3 3 3 3 2 3 3 3 3
2 2 4 8 8 9 9 6 3 3 2 2 2 2 3 3 1 2 1 3 6 9 11 11 10 11 10 10 11 11 12 12 12 12 12 15 16 18 18 18 19 18 16 18 19 18 19 22 24 23 23 22 22 21 21 20 20 19 17 15 13 13 11 10 11 11 12 13 12 12 10 9 9 9 9 9 10 10 10 9 8 7 6 5 5 4 3 3 3 3 3 3 2 2 2 2 2
3 7 10 9 7 7 5 2 4 2 2 0 3 4 3 2 0 1 1 2 4 6 8 9 10 10 10 10 11 11 10 11 13 13 13 16 17 18 18 18 18 18 17 18 18 18 19 21 24 24 23 23 22 22 22 21 21 19 18 17 15 14 13 12 12 11 12 13 12 12 12 11 10 9 9 9 10 10 10 10 8 7 6 5 5 4 4 4 4 3 3 3 3 3 3 2 2
10 10 11 9 7 5 3 2 2 1 2 1 1 3 3 2 0 1 1 0 1 3 4 5 7 9 10 10 11 11 10 10 11 12 13 15 17 17 17 17 19 18 17 17 18 18 18 20 24 25 24 24 23 23 22 22 21 20 19 18 17 15 14 14 13 12 12 13 13 12 12 12 11 9 8 9 9 9 10 10 8 6 6 6 6 6 5 4 4 4 4 4 4 4 4 3 3
5 5 7 6 4 2 2 2 0 3 2 2 2 3 4 3 1 2 2 1 2 4 5 6 6 7 9 9 10 11 11 10 11 11 12 13 14 15 17 17 18 18 17 18 18 19 19 20 23 26 26 25 25 24 24 23 22 21 20 19 18 16 16 16 15 14 14 14 13 12 13 13 12 10 9 9 9 9 9 10 8 8 7 7 7 7 7 6 5 5 5 5 5 5 5 4 4
2 4 5 3 2 1 2 1 1 3 1 2 1 3 3 4 3 2 3 1 2 3 5 7 8 7 7 8 9 10 9 10 11 10 11 11 12 15 17 17 18 19 19 19 19 19 19 21 24 27 27 27 26 25 25 24 24 22 20 19 19 18 18 18 17 16 15 15 14 13 13 13 12 11 11 10 10 9 10 10 9 9 9 7 7 7 8 8 7 7 6 6 6 5 5 5 4
6 5 3 2 2 2 2 1 1 3 0 2 1 3 2 3 2 1 2 2 3 4 4 5 7 8 8 6 7 9 10 11 10 10 11 10 12 15 18 18 18 19 20 20 20 20 19 20 24 27 28 28 28 27 27 26 25 23 20 19 19 19 19 19 18 16 15 16 15 13 12 11 11 11 11 11 11 10 10 10 10 10 9 8 8 8 8 9 10 9 9 8 7 7 6 5 4
4 1 1 2 3 2 2 2 2 1 2 3 2 2 2 2 1 1 1 2 2 2 3 4 4 5 6 6 6 7 9 10 9 10 11 11 13 16 17 17 18 19 20 20 20 20 19 20 25 29 29 29 29 29 29 28 27 25 22 20 20 20 20 19 17 16 15 16 15 13 13 12 11 11 11 11 11 11 11 12 11 10 10 9 9 9 9 9 11 11 11 10 8 7 7 6 6
2 0 1 2 1 1 0 0 0 1 1 2 2 2 2 1 1 1 1 1 2 2 3 2 3 2 2 3 4 5 7 9 9 9 10 12 14 15 16 17 18 18 19 20 20 20 20 20 25 30 30 30 31 31 31 29 28 26 24 23 22 22 21 19 17 16 16 16 15 14 14 13 12 12 12 12 11 11 12 12 12 11 11 10 9 10 10 10 11 11 11 10 9 8 8 8 8
3 2 3 1 1 2 2 2 1 1 2 1 1 3 2 1 2 2 2 3 3 2 2 2 4 3 2 1 2 3 5 6 8 9 9 11 12 15 16 14 13 12 13 15 17 19 23 24 25 28 29 29 30 31 31 30 29 28 27 25 24 23 22 19 17 16 15 16 16 15 14 13 13 13 13 12 12 12 12 12 12 12 12 11 10 10 10 10 11 10 10 10 10 8 9 9 10
2 3 4 4 1 0 1 1 1 1 3 1 1 4 3 2 2 1 3 4 3 2 2 2 2 3 3 3 2 2 3 5 6 7 8 9 11 14 13 11 12 14 13 14 14 16 21 24 25 26 27 28 29 30 30 30 30 28 27 27 26 24 22 19 17 16 15 15 15 15 15 14 14 13 13 13 13 13 13 12 12 12 12 12 11 11 10 10 11 11 11 12 11 11 10 10 10
2 3 5 2 1 1 1 1 1 1 2 1 1 3 3 4 3 1 4 6 4 2 1 1 2 3 3 3 3 3 2 3 4 6 6 7 10 13 14 15 18 19 17 17 17 16 18 20 21 23 25 27 28 26 25 28 29 27 26 26 26 25 23 20 18 18 17 16 15 14 14 15 14 14 15 14 13 13 12 13 12 12 12 12 12 12 12 12 12 12 13 12 12 13 14 12 11
4 5 4 1 1 1 1 0 0 1 1 1 1 2 2 3 2 2 5 7 5 3 1 1 2 2 2 3 3 4 3 2 2 4 5 7 9 11 14 17 20 22 21 18 18 19 19 19 18 18 20 22 23 22 23 27 28 25 24 25 25 26 25 23 21 20 18 16 15 14 13 14 14 15 15 14 14 13 12 12 11 11 10 10 12 12 13 14 14 14 13 12 11 13 15 13 11
3 4 4 1 2 1 1 1 1 1 1 1 2 2 1 1 1 3 5 6 5 2 1 1 2 2 2 3 4 4 4 3 1 1 2 5 7 10 12 14 18 23 23 18 17 19 19 19 19 20 19 18 20 20 21 25 26 25 26 26 24 25 26 23 21 20 18 17 16 16 15 14 15 16 15 14 14 14 13 12 11 11 11 12 13 14 14 15 16 16 15 14 13 15 15 14 12
1 3 3 3 4 3 2 1 0 1 1 1 1 3 2 2 1 3 2 3 3 1 1 1 2 3 3 3 4 5 4 3 2 1 1 2 4 8 11 13 16 20 20 19 18 18 17 19 21 22 21 20 21 20 21 25 27 28 28 27 23 23 24 24 21 19 19 18 17 17 18 17 16 15 15 15 14 13 13 12 12 12 14 14 15 16 16 16 17 17 15 14 13 14 15 14 14
Wind_Direction
156 152 151 160 154 176 176 277 219 90 20 87 66 72 90 16 333 137 130 133 134 153 165 130 141 142 147 153 130 91 39 63 28 351 83 79 123 137 125 124 132 128 130 132 137 138 129 130 132 128 124 127 124 117 120 121 122 123 117 107 105 108 109 109 107 105 105 104 102 101 100 102 105 105 106 108 108 107 108 111 114 110 107 108 108 106 103 101 102 105 103 100 100 100 102 103 101
164 157 153 155 172 221 11 289 323 92 117 95 72 17 53 300 145 121 130 129 90 140 148 135 137 103 81 109 121 108 62 39 17 43 84 118 128 127 128 131 132 129 130 132 135 134 133 136 136 131 126 126 121 124 129 129 127 124 115 108 111 110 106 103 101 103 107 105 103 102 103 105 105 104 105 107 109 108 111 118 119 112 109 107 107 108 107 108 108 106 102 100 102 102 104 104 101
160 155 156 163 171 243 318 258 169 113 110 97 93 14 1 26 64 92 121 56 80 132 135 136 132 85 104 119 105 47 71 59 75 98 113 136 134 132 138 135 133 129 128 131 133 133 134 136 133 126 122 121 121 129 126 127 126 119 114 113 121 116 108 107 107 109 110 106 102 102 103 105 102 103 107 110 110 110 114 121 117 111 110 107 107 110 111 114 114 107 104 103 104 105 106 103 99
158 165 165 183 232 186 260 20 84 114 107 105 110 44 8 35 51 75 93 98 118 137 139 144 131 43 19 92 67 41 80 81 108 109 132 147 138 138 142 138 134 128 128 130 132 131 130 131 127 123 123 123 121 125 121 126 127 121 116 115 121 119 116 116 119 118 112 107 103 103 102 103 103 105 112 115 111 110 114 116 111 109 110 108 108 112 114 116 116 112 110 109 107 107 107 103 99
149 175 176 199 278 53 274 90 64 75 102 108 117 77 26 54 74 92 103 106 120 145 146 153 126 72 63 59 17 55 78 95 130 132 133 142 135 139 143 139 135 130 130 131 132 130 131 133 130 129 129 129 130 133 132 133 130 120 116 117 119 120 122 121 120 117 110 107 105 105 103 102 106 109 113 114 109 109 113 111 108 106 106 106 109 115 115 116 116 115 116 115 111 106 102 98 99
153 192 191 201 290 308 240 116 98 79 89 310 106 89 60 85 93 103 107 92 95 134 143 148 125 118 96 64 42 49 44 118 134 151 138 141 141 141 142 139 135 130 133 134 134 130 131 133 130 130 127 130 134 135 135 137 129 116 113 114 118 123 124 121 117 114 110 107 106 106 103 101 104 108 111 112 109 111 115 114 116 115 110 108 108 112 115 116 117 117 116 116 114 109 103 98 100
176 202 185 196 184 220 109 101 103 89 101 264 77 88 79 75 104 121 116 106 108 122 138 137 128 120 94 93 79 50 31 116 128 146 142 142 143 142 141 139 134 132 136 135 134 130 129 128 126 124 121 129 132 128 131 134 124 117 115 107 116 124 122 119 117 113 111 110 108 108 105 103 107 107 108 112 110 111 113 114 119 119 117 115 112 111 110 112 116 118 117 116 117 115 109 102 101
193 245 239 224 121 108 87 92 97 84 108 226 4 79 54 49 138 139 116 114 121 131 139 138 143 116 79 86 95 53 51 101 123 132 136 142 143 143 142 140 135 136 138 135 133 128 127 126 125 121 121 130 131 128 128 127 118 113 116 109 111 122 124 121 116 113 113 113 110 108 106 104 109 104 101 107 110 111 112 114 117 115 117 119 119 114 109 113 117 117 116 116 118 116 112 107 105
215 237 240 219 111 100 97 91 98 88 90 145 129 90 9 17 215 152 111 103 119 136 135 142 205 130 101 89 91 74 70 104 120 126 136 141 143 144 145 145 141 141 139 137 135 130 130 128 127 126 125 132 133 130 125 121 118 111 112 112 109 118 125 120 117 114 109 109 107 106 106 104 106 102 98 104 111 109 109 112 113 113 117 118 119 118 117 122 124 120 116 116 118 115 111 109 104
235 176 242 193 128 117 117 104 110 108 87 102 90 90 344 312 157 110 116 112 120 132 120 98 106 121 117 95 86 88 100 118 122 129 139 142 145 145 147 153 149 146 143 142 137 132 134 132 133 130 126 132 137 135 129 122 121 116 111 111 112 117 119 115 115 115 108 105 106 108 109 105 105 102 97 100 103 102 110 115 112 113 117 117 118 117 119 126 131 129 121 119 118 115 112 108 103
288 73 260 152 129 130 127 115 120 113 115 125 96 90 321 288 124 104 109 112 104 119 120 104 111 118 110 92 88 103 118 129 128 135 143 144 146 144 146 153 156 153 149 148 141 137 138 141 143 133 125 130 138 136 130 127 126 119 116 116 114 112 118 120 115 115 112 107 109 113 112 108 107 103 98 98 97 97 114 118 112 113 114 113 113 110 116 126 132 131 122 121 121 121 119 112 109
337 16 278 120 107 118 128 125 121 123 136 143 118 79 321 218 140 127 124 120 115 116 113 104 133 129 104 97 109 122 131 135 133 138 144 144 144 146 146 150 158 161 159 156 148 147 150 149 147 138 130 128 136 138 124 127 138 134 128 125 121 119 126 128 120 117 116 113 116 114 110 108 106 107 109 111 106 103 109 112 106 107 107 107 109 112 120 128 130 128 123 128 132 134 130 124 124
5 358 36 91 78 106 130 128 118 139 142 137 114 34 318 188 143 137 128 116 117 110 76 101 139 123 94 108 121 135 141 140 140 140 142 142 141 145 144 148 157 163 168 164 156 157 157 152 148 145 137 126 124 135 132 132 144 145 136 130 132 139 136 130 126 121 118 117 117 114 113 107 103 107 116 119 116 115 115 109 97 94 98 105 110 116 123 129 128 128 135 144 152 152 145 144 146
2 355 47 99 119 120 124 127 139 164 138 126 121 1 334 96 115 131 133 124 102 57 80 104 125 105 110 128 139 149 146 145 145 140 139 137 137 139 138 144 151 161 172 172 164 157 159 158 158 154 144 133 125 132 151 148 143 143 139 135 139 148 143 137 135 123 120 119 116 117 114 104 101 104 109 112 114 120 124 119 105 96 102 107 108 111 116 126 131 134 145 154 166 175 177 181 187
271 131 69 110 130 127 163 140 146 167 139 127 95 27 80 62 97 124 126 122 89 84 110 115 99 75 144 158 158 155 148 148 146 138 136 132 132 133 133 139 146 161 174 176 165 160 172 168 167 162 147 145 137 132 143 156 148 139 139 145 150 153 147 144 139 125 120 118 115 115 105 99 100 101 99 100 106 117 124 124 123 124 123 115 113 113 110 113 115 118 122 135 159 190 210 221 224
170 176 67 108 138 151 179 154 157 164 142 126 94 112 108 83 26 103 72 97 113 125 108 116 10 357 159 153 143 149 147 146 143 136 133 130 130 129 132 139 146 162 177 176 166 171 184 174 171 168 153 151 143 136 139 148 153 142 140 152 161 160 153 148 143 130 122 115 112 112 105 103 105 103 103 104 107 113 117 121 126 129 129 125 121 115 106 101 100 102 103 116 147 198 224 237 242
190 271 56 103 153 165 174 165 173 142 130 136 142 220 126 114 55 68 79 118 123 123 61 76 54 49 137 123 132 144 146 145 143 139 136 135 136 135 138 144 153 171 188 180 171 178 181 175 174 169 164 158 144 143 142 141 157 158 150 154 161 164 160 153 145 133 124 116 117 119 113 112 112 109 108 111 113 111 111 115 119 122 126 127 126 121 112 107 103 101 99 108 137 212 240 254 258
262 7 72 127 166 160 171 172 185 104 146 150 147 194 137 127 116 117 126 112 119 113 82 84 74 75 105 116 131 143 146 148 149 147 147 146 148 148 149 156 166 178 191 184 176 184 184 178 169 156 156 153 144 144 140 138 158 167 160 154 155 162 159 152 147 136 128 124 125 122 115 117 120 113 108 113 113 112 113 114 117 121 126 126 124 120 112 106 99 94 88 86 86 15 286 286 285
61 26 70 75 158 98 47 46 30 16 148 136 125 158 139 126 119 152 154 131 142 127 103 103 94 96 113 124 136 146 151 154 156 156 156 157 160 159 158 165 173 181 188 188 182 180 185 169 144 142 143 140 137 139 137 139 156 165 164 157 151 158 155 152 155 141 130 127 122 117 115 119 124 117 111 118 118 117 117 117 121 123 123 119 113 109 101 97 90 82 73 60 38 359 330 319 312
40 353 67 43 10 86 56 47 56 21 82 127 128 123 124 121 115 173 156 145 169 169 138 132 125 128 132 136 143 152 157 159 162 163 162 164 165 164 165 170 176 184 188 188 186 180 175 154 132 136 138 134 133 137 135 135 150 159 160 158 152 154 153 154 156 138 125 121 118 121 121 122 131 128 119 122 119 114 111 109 112 111 108 102 98 93 85 76 63 47 20 355 338 328 319 313 306
112 340 7 26 328 97 62 62 70 53 87 116 128 129 127 122 115 169 150 147 189 207 183 163 148 147 145 146 150 157 163 164 167 170 169 169 169 167 170 174 178 183 186 186 185 182 178 162 143 145 144 139 137 139 134 132 144 152 155 156 150 148 152 155 149 136 136 135 138 137 125 131 143 139 122 116 111 106 104 102 101 98 94 89 84 74 60 44 25 6 348 335 321 311 301 293 287
136 97 17 7 305 90 66 71 71 71 101 115 133 133 129 130 144 164 167 167 179 202 191 166 150 151 152 151 153 161 168 170 173 175 176 174 172 171 172 175 179 181 185 185 181 182 186 180 169 166 154 144 140 141 138 139 144 149 155 153 146 146 149 150 146 149 158 159 157 140 124 135 143 135 118 109 104 103 100 98 95 90 84 77 68 55 39 21 13 5 359 359 340 316 293 278 272
178 98 55 30 22 45 60 72 61 51 102 116 124 110 131 157 146 169 194 191 64 124 156 146 147 150 151 152 156 165 171 175 176 178 180 178 177 177 176 176 180 183 185 182 177 180 185 186 178 170 156 145 145 146 149 151 147 150 155 150 146 146 146 149 152 159 162 162 158 141 132 137 137 128 116 109 104 101 97 92 88 82 75 65 51 38 30 23 23 24 32 33 19 2 323 279 266
328 78 70 46 43 48 54 80 73 43 56 55 354 297 178 172 139 164 207 196 88 127 138 136 144 146 150 155 164 170 174 177 177 178 180 181 183 179 176 177 180 185 185 180 177 177 180 183 178 177 171 158 153 152 157 158 150 150 152 148 149 150 151 155 156 160 162 162 158 151 147 139 131 122 109 106 102 99 95 89 83 76 66 52 37 30 28 33 35 35 37 27 18 12 352 288 259
64 76 88 64 58 59 61 82 78 56 41 11 331 260 154 140 133 167 212 193 134 136 133 136 142 147 157 164 169 173 176 178 175 175 179 183 184 178 178 179 181 186 185 179 178 176 175 176 178 183 178 169 162 159 161 158 152 151 152 152 155 159 158 158 160 164 167 163 161 160 153 137 125 111 104 104 103 99 93 86 81 71 55 40 36 31 29 34 38 37 28 20 17 17 15 3 245
90 88 101 93 82 70 53 69 65 62 54 1 332 183 107 73 188 191 273 177 153 141 138 143 148 154 164 171 176 177 178 180 176 176 181 184 185 184 185 184 184 187 183 177 178 176 171 170 174 176 172 171 166 162 162 159 157 155 157 157 155 159 159 160 165 169 169 164 163 161 147 131 117 104 105 108 103 96 90 85 77 65 46 35 38 33 30 33 34 31 22 18 20 17 18 39 73
105 104 97 90 88 68 35 54 45 42 67 18 358 154 87 93 207 210 46 148 156 145 145 150 156 162 167 174 180 182 184 183 180 180 182 185 190 192 190 189 188 185 179 177 178 175 170 170 171 169 167 170 166 166 166 162 161 160 159 156 152 158 160 162 167 170 169 163 159 151 135 123 113 107 111 109 100 92 87 82 73 62 43 34 37 34 30 31 30 24 17 16 14 12 15 44 68
116 116 96 79 87 77 35 43 31 13 88 27 8 303 34 136 211 328 67 154 158 147 152 158 163 166 168 176 179 184 188 183 182 185 186 186 191 193 189 190 187 180 178 178 177 172 170 172 172 170 168 170 168 167 168 164 163 162 158 156 157 159 159 163 169 169 164 157 150 140 128 121 115 114 113 108 99 92 87 80 70 56 41 35 35 33 30 30 29 21 14 10 360 5 24 73 76
117 141 106 85 103 90 25 22 10 340 98 17 344 205 171 118 3 344 123 153 152 147 154 162 167 166 170 178 180 188 190 185 188 193 193 188 187 189 186 184 180 175 176 176 172 169 170 173 172 171 171 171 170 167 167 166 164 163 163 162 161 160 161 165 165 162 157 152 145 134 128 123 119 118 115 110 103 96 91 83 68 47 42 37 32 32 32 31 28 19 10 5 354 3 30 96 96
113 81 66 104 147 97 25 4 338 338 50 4 315 210 160 86 17 24 142 151 149 149 157 167 169 167 174 183 187 193 193 192 197 199 194 187 185 188 184 180 176 169 168 171 171 169 170 174 173 173 174 172 170 167 166 167 165 166 169 166 163 161 161 161 158 157 154 151 146 140 136 131 128 125 119 115 109 105 96 82 65 44 40 36 30 33 34 31 27 19 7 2 357 3 25 90 117
127 161 158 114 331 15 34 325 224 119 11 355 326 233 152 90 39 55 145 162 161 157 162 172 172 172 180 190 196 197 198 202 205 201 193 186 184 185 181 178 176 169 163 167 169 168 171 175 175 174 174 172 171 169 168 168 168 170 171 167 163 160 160 159 159 161 161 165 165 158 152 145 140 132 124 121 117 115 100 74 57 46 40 34 33 37 34 33 29 19 8 2 358 3 19 64 123
46 279 266 33 11 59 58 99 178 150 21 4 335 243 131 77 49 55 145 171 174 166 165 176 178 181 187 193 203 204 202 206 209 205 195 188 184 181 180 177 177 173 166 165 166 168 173 178 178 175 173 173 171 170 171 171 170 171 169 165 163 163 163 165 167 171 178 191 190 177 163 152 144 136 130 129 127 124 107 74 52 45 38 34 38 43 37 35 30 19 9 3 358 3 17 40 133
69 305 314 10 26 112 93 106 179 190 44 42 6 312 121 21 29 61 139 175 187 176 170 182 184 187 194 197 205 207 202 201 206 208 197 187 186 182 178 176 177 175 169 165 165 168 173 178 180 176 174 173 172 173 173 171 170 169 167 166 168 169 170 172 176 181 190 197 188 174 162 153 146 140 137 136 135 130 116 83 47 38 37 33 39 45 40 37 33 22 10 3 1 6 16 28 112
109 154 309 349 344 13 103 127 168 201 340 85 43 40 219 295 354 78 154 177 191 190 181 186 188 191 198 202 208 209 209 207 204 203 196 185 182 181 177 174 175 175 173 170 167 168 171 176 179 176 174 173 173 174 174 172 170 169 168 170 174 176 177 179 182 188 192 183 174 169 160 154 152 146 144 144 142 142 138 119 53 41 36 29 35 40 34 32 30 25 12 3 5 8 15 25 24
35 17 335 319 345 59 124 132 153 169 170 152 126 101 225 259 319 110 163 178 194 202 191 190 194 197 200 205 213 213 214 215 208 198 192 183 176 177 174 170 173 174 173 173 170 169 170 174 176 176 174 173 173 174 173 172 172 172 173 175 180 182 184 185 187 193 192 178 167 168 165 159 158 155 149 152 159 162 158 141 76 54 30 18 33 34 26 28 29 23 14 4 4 5 5 8 2
29 40 5 344 357 75 124 122 151 173 172 180 189 200 217 231 225 167 157 179 199 205 197 197 199 201 205 209 214 214 217 219 204 190 187 182 175 173 169 167 172 175 173 174 174 173 175 177 177 176 175 173 172 173 174 174 174 176 177 182 188 190 191 189 190 194 191 188 175 172 176 170 160 159 157 166 179 177 177 201 214 44 22 16 39 38 28 30 29 19 12 7 5 4 2 0 345
40 71 90 270 263 97 118 123 160 182 191 193 204 235 232 232 225 199 162 182 201 205 203 205 204 204 207 211 215 213 216 214 183 179 184 181 174 169 166 167 172 174 174 175 176 177 178 181 182 180 179 178 176 176 177 178 177 178 182 188 192 192 195 193 195 202 200 198 190 182 188 184 174 184 184 183 192 195 204 218 228 356 26 29 40 39 32 32 28 20 10 5 8 13 16 13 360
307 304 265 229 230 116 73 105 160 186 215 194 193 241 237 234 233 214 198 200 204 208 210 211 208 208 211 212 215 212 208 195 171 179 184 181 176 170 168 172 176 176 176 177 178 179 179 182 187 184 183 185 183 182 182 182 183 182 183 191 193 192 198 201 202 210 212 209 202 196 199 202 204 215 215 208 206 210 222 227 228 254 23 26 27 29 29 27 25 27 23 12 7 14 25 26 20
230 254 241 242 174 124 81 82 148 183 231 208 176 240 242 236 236 227 221 220 216 214 217 220 211 208 212 212 211 206 199 191 185 186 184 182 178 174 173 177 183 180 177 179 180 179 179 182 190 192 188 188 188 189 187 188 189 188 189 194 197 197 205 212 217 226 223 214 211 210 211 214 218 222 224 222 215 217 227 227 221 228 265 337 15 19 20 19 20 27 28 22 10 4 28 33 30
206 204 244 249 160 173 125 125 159 156 355 29 149 246 259 244 231 228 228 236 255 229 215 224 220 215 215 212 208 203 200 194 189 188 186 185 180 178 181 180 182 182 178 181 182 181 182 185 192 195 194 192 192 193 193 194 195 194 197 204 207 212 220 227 235 237 227 214 213 217 218 220 219 220 223 224 220 220 220 218 221 226 248 275 334 358 6 11 10 14 19 21 15 5 20 27 31
211 207 235 233 170 188 65 132 154 140 107 32 333 248 255 247 237 224 208 237 253 234 211 215 219 221 217 210 206 205 206 197 188 187 183 188 189 184 185 182 182 183 184 187 186 184 186 188 192 195 197 198 197 197 197 198 198 198 202 209 214 220 227 235 237 229 219 214 216 218 220 222 219 218 222 223 222 221 217 216 223 228 253 276 302 338 350 348 349 356 3 15 19 13 10 11 25
243 208 230 226 165 145 119 141 151 155 189 89 323 265 203 174 240 228 161 214 229 218 219 222 214 204 201 210 209 204 208 204 194 189 180 190 199 190 185 186 186 187 190 191 191 189 188 188 192 196 199 202 203 201 200 200 201 202 204 205 205 209 218 229 228 218 212 212 214 215 217 220 218 220 224 224 224 223 220 220 225 231 251 272 285 302 319 325 331 343 350 2 16 16 11 6 12
298 324 234 183 146 134 136 156 166 154 145 69 320 274 318 98 169 247 345 253 234 227 227 228 219 205 197 207 211 202 204 205 202 196 187 192 196 190 188 190 192 194 191 190 192 193 191 191 194 196 200 203 205 205 202 202 205 207 208 206 206 209 216 232 236 228 218 216 217 217 218 221 220 220 225 228 226 224 225 227 233 240 251 267 278 289 302 314 322 326 334 345 359 12 17 11 2
341 7 175 148 141 143 148 161 159 99 109 90 136 259 304 286 107 74 313 267 238 236 233 227 220 215 206 203 210 206 202 202 202 200 193 194 194 192 192 193 196 198 191 187 192 194 194 197 198 198 200 203 204 206 205 205 208 210 212 211 215 222 225 236 243 238 231 227 227 225 224 226 226 223 225 230 229 228 230 233 241 251 261 272 278 286 294 300 311 311 315 328 339 358 12 11 359
351 36 116 129 132 139 145 149 109 112 177 144 144 193 267 278 128 130 237 251 239 235 232 228 220 214 208 204 209 209 204 202 203 202 197 196 197 197 196 194 197 197 191 189 192 194 196 200 202 201 202 204 205 207 207 209 211 213 216 217 222 231 235 241 246 245 240 235 231 231 231 230 231 230 230 233 232 231 233 237 246 258 266 276 279 280 283 282 284 291 301 311 309 313 332 340 349
126 120 104 104 106 107 114 118 108 128 249 235 147 202 258 292 186 138 174 233 253 250 238 233 227 219 212 207 209 208 204 202 205 205 200 197 198 199 198 195 196 196 194 193 193 193 195 199 203 204 204 205 207 208 209 210 213 215 219 223 227 234 240 243 245 245 244 238 232 232 234 232 231 234 236 237 236 234 235 238 245 256 264 269 268 266 273 276 271 276 290 291 282 280 290 292 294
140 127 105 103 100 101 86 53 81 198 234 86 104 226 259 300 237 172 215 177 291 295 289 262 240 231 223 215 210 206 202 200 203 206 202 199 198 199 198 196 194 195 194 192 192 193 194 197 203 206 207 208 208 208 210 211 213 217 222 228 232 234 237 240 238 235 236 234 228 228 231 231 231 233 235 238 239 236 235 235 238 249 259 262 260 261 267 271 267 264 272 279 278 270 270 275 278
143 135 122 115 92 104 117 82 208 237 204 84 3 243 231 259 239 166 207 245 274 274 295 296 275 249 234 224 217 211 206 200 199 204 202 197 197 196 197 197 194 193 192 192 193 194 193 196 202 206 208 209 208 209 211 212 214 218 225 232 234 232 233 235 232 229 230 227 223 224 227 229 232 233 233 236 237 234 231 231 236 248 256 258 259 260 261 259 256 255 260 269 270 261 264 273 273
186 156 148 137 94 150 173 158 224 240 224 60 320 233 219 257 261 218 229 283 305 281 288 293 291 279 257 237 225 216 211 204 198 200 200 197 197 196 197 196 191 191 193 193 194 194 194 196 202 207 209 210 209 208 211 214 217 221 226 231 230 228 232 235 234 232 230 227 223 221 224 226 229 231 233 236 235 231 230 233 240 248 254 257 258 260 258 251 247 251 256 260 261 257 262 270 268
189 168 168 164 137 183 190 159 253 262 239 76 190 229 245 264 262 246 262 324 331 310 308 298 289 281 272 260 239 223 214 211 202 197 199 198 198 198 197 194 191 192 195 194 194 195 194 196 201 207 210 211 209 209 212 216 220 223 225 227 225 225 230 233 234 233 231 231 229 224 223 223 226 230 233 237 237 232 232 238 244 248 251 254 256 258 257 250 246 250 254 256 256 256 259 266 268
187 124 303 198 165 220 232 197 230 249 107 99 156 216 250 259 76 56 311 342 339 332 342 324 299 280 272 264 248 232 218 214 209 202 200 198 198 199 198 194 192 194 196 195 195 194 193 195 201 207 211 212 211 211 213 216 220 222 223 224 223 224 229 232 235 238 236 236 235 231 233 232 231 235 239 243 244 239 239 242 247 250 251 253 255 255 256 253 251 251 254 257 260 262 263 266 268
143 48 244 253 185 160 65 24 15 46 146 151 179 231 268 273 257 260 245 178 83 35 15 352 347 346 290 260 241 234 223 215 212 207 202 198 196 198 201 200 197 196 195 195 194 193 194 197 202 207 211 213 214 214 215 217 219 221 221 221 221 224 228 232 238 244 244 241 240 239 243 244 243 245 249 251 251 247 246 246 247 251 252 254 256 256 255 256 257 257 258 263 267 272 273 272 273
135 188 185 73 22 128 116 107 59 350 242 189 170 250 261 251 239 204 192 174 121 64 40 37 14 16 21 341 279 250 238 223 215 209 205 199 193 198 205 203 194 190 196 202 199 196 199 201 203 208 211 213 215 216 217 218 218 219 220 220 222 224 227 231 236 244 246 244 245 246 248 249 250 253 256 256 255 251 248 248 249 251 252 255 259 261 261 259 261 261 259 263 267 272 276 277 278
160 181 147 116 90 65 90 146 122 205 251 216 190 272 287 270 261 139 168 202 167 106 65 72 40 32 35 11 341 289 254 239 226 213 208 201 195 197 192 179 174 179 193 209 209 206 206 206 206 207 210 213 217 218 218 219 219 218 218 220 223 225 226 228 232 239 242 243 246 248 248 249 252 257 260 259 257 255 252 251 253 255 256 260 263 267 267 265 264 262 259 262 264 265 268 270 273
36 124 125 133 207 162 108 183 162 211 266 232 184 281 284 241 250 178 183 201 190 168 108 77 64 50 30 7 355 335 288 248 229 213 206 202 197 189 176 172 180 187 196 206 208 209 211 212 211 210 212 215 217 217 216 219 220 218 219 221 224 225 226 226 231 237 240 240 242 244 247 251 255 260 262 259 255 253 252 253 257 260 261 263 266 269 270 268 266 264 264 263 262 265 266 266 269
68 116 122 2 337 90 108 133 247 253 263 279 235 263 249 221 239 226 193 190 190 185 164 51 43 46 19 1 357 351 341 308 243 213 202 199 194 184 180 181 185 193 204 208 206 208 209 211 211 211 215 217 216 214 215 220 220 218 220 222 224 226 227 227 231 235 235 235 238 241 244 250 255 260 260 255 251 250 250 252 255 257 257 259 262 263 264 266 267 268 268 264 259 264 267 266 267
141 165 156 129 96 102 148 110 17 297 201 218 268 276 277 109 184 215 190 180 181 176 170 15 30 40 22 3 357 357 358 353 327 242 217 201 190 183 185 185 187 199 208 208 206 209 208 205 204 207 212 216 217 216 216 220 221 220 222 224 225 226 226 226 228 230 230 231 235 240 244 249 255 259 257 251 250 252 252 253 254 255 256 258 261 262 262 264 268 272 275 273 267 266 267 266 266
176 199 181 154 133 148 187 164 149 311 288 201 253 291 311 71 159 229 182 159 164 173 249 317 36 27 12 6 3 3 358 0 7 328 257 215 196 187 188 188 189 200 207 207 208 211 207 205 205 206 209 212 218 218 217 221 222 223 225 226 225 225 225 225 223 224 228 230 233 239 244 249 252 255 253 250 250 252 254 258 260 261 261 262 265 268 269 269 270 273 275 273 268 267 268 266 265